This demonstration page uses our WeatherBlox Daily Observations layout. Learn more.

39.01783, -85.05884

Hourly Observations for January 25, 2021

Temp ( °F °C ) Dew Point ( °F °C ) Humidity (%) Winds ( mph kmh ) Pressure ( in mb ) Visibility ( mi km ) Precip ( " mm )
12:52 am 00:52 Cloudy with Mist and Fog 32 0 30 -1.1 92 92 N 8 13 30.05 1018 3 4.82802 0 0
1:52 am 01:52 Cloudy with Mist and Fog 32 0 30 -1.1 92 92 Calm 30.06 1018 4 6.43736 0 0
2:07 am 02:07 Cloudy with Mist and Fog 32 0 30 -1.1 92 92 NNW 3 6 30.11 1020 5 8.0467 0 0
2:52 am 02:52 Cloudy with Mist and Fog 32 0 30 -1.1 92 92 N 6 9 30.09 1019 5 8.0467 0 0
3:52 am 03:52 Cloudy with Mist and Fog 31 -0.6 29 -1.7 92 92 NNE 9 15 30.06 1018 6 9.65604 0 0
4:52 am 04:52 Cloudy with Mist and Fog 31 -0.6 29 -1.7 92 92 NE 8 13 30.06 1018 4 6.43736 0 0
5:52 am 05:52 Cloudy with Mist and Fog 31 -0.6 28 -2.2 89 89 E 8 13 30.04 1017 5 8.0467 0 0
6:52 am 06:52 Cloudy with Mist and Fog 31 -0.6 28 -2.2 89 89 ENE 12 19 30.04 1017 5 8.0467 0 0
7:52 am 07:52 Cloudy with Mist and Fog 31 -0.6 28 -2.2 89 89 ENE 12 19 30.02 1017 6 9.65604 0 0
8:52 am 08:52 Cloudy with Mist and Fog 31 -0.6 28 -2.2 89 89 ENE 8 13 30.04 1017 5 8.0467 0 0
9:52 am 09:52 Cloudy with Mist and Fog 31 -0.6 28 -2.2 89 89 E 12 19 30.01 1016 4 6.43736 0 0
10:31 am 10:31 Cloudy with Light Freezing Rain 32 0 28 -2.2 85 85 ENE 9 15 30.06 1018 4 6.43736 0.01 0.254
10:52 am 10:52 Cloudy with Light Freezing Rain 31 -0.6 28 -2.2 89 89 ENE 12 19 29.99 1016 4 6.43736 0.02 0.508
11:52 am 11:52 Cloudy with Light Freezing Rain 32 0 29 -1.7 88 88 ENE 10 17 29.93 1013 3 4.82802 0.05 1.27
12:21 pm 12:21 Cloudy with Light Freezing Rain 32 0 29 -1.7 88 88 NE 7 11 29.99 1015 2.5 4.02335 0.03 0.762
12:52 pm 12:52 Cloudy with Light Freezing Rain 32 0 29 -1.7 88 88 NE 14 22 29.91 1013 2 3.21868 0.14 3.556
1:29 pm 13:29 Cloudy with Light Freezing Rain 32 0 29 -1.7 88 88 NE 17 28 29.92 1013 2.5 4.02335 0.09 2.286
1:52 pm 13:52 Cloudy with Light Freezing Rain 32 0 30 -1.1 92 92 NE 14 22 29.87 1012 2.5 4.02335 0.13 3.302
2:45 pm 14:45 Cloudy with Light Rain 33 0.6 30 -1.1 89 89 ENE 12 19 29.88 1012 2.5 4.02335 0.05 1.27
2:52 pm 14:52 Cloudy with Light Rain 33 0.6 30 -1.1 89 89 ENE 13 20 29.83 1010 2.5 4.02335 0.05 1.27
3:01 pm 15:01 Cloudy with Light Rain 32 0 30 -1.1 92 92 E 16 26 29.83 1010 0.5 0.80467 0.001 0.001
3:09 pm 15:09 Cloudy with Light Rain 32 0 30 -1.1 92 92 E 15 24 29.82 1010 2 3.21868 0.001 0.001
3:39 pm 15:39 Cloudy with Mist and Fog 33 0.6 31 -0.6 92 92 NNE 8 13 29.86 1011 4 6.43736 0.001 0.001
3:52 pm 15:52 Cloudy with Mist and Fog 33 0.6 31 -0.6 92 92 NE 10 17 29.82 1010 5 8.0467 0.001 0.001
4:02 pm 16:02 Cloudy with Mist and Fog 33 0.6 31 -0.6 92 92 E 14 22 29.79 1009 4 6.43736 0 0
4:52 pm 16:52 Cloudy with Drizzle 33 0.6 31 -0.6 92 92 ENE 13 20 29.8 1009 3 4.82802 0.001 0.001
5:05 pm 17:05 Cloudy with Drizzle 33 0.6 31 -0.6 92 92 ENE 13 20 29.81 1010 2 3.21868 0.001 0.001
5:18 pm 17:18 Cloudy with Mist and Fog 33 0.6 31 -0.6 92 92 ENE 15 24 29.79 1009 4 6.43736 0.001 0.001
5:35 pm 17:35 Cloudy with Mist and Fog 33 0.6 31 -0.6 92 92 ENE 17 28 29.75 1008 2 3.21868 0.001 0.001
5:52 pm 17:52 Cloudy with Mist and Fog 34 1.1 31 -0.6 89 89 ENE 16 26 29.72 1006 2 3.21868 0.001 0.001
6:42 pm 18:42 Cloudy with Mist and Fog 34 1.1 32 0 92 92 NE 14 22 29.75 1008 3 4.82802 0 0
6:52 pm 18:52 Cloudy with Mist and Fog 35 1.7 32 0 89 89 ENE 13 20 29.74 1007 3 4.82802 0 0
7:52 pm 19:52 Cloudy with Mist and Fog 35 1.7 33 0.6 93 93 NE 9 15 29.74 1007 3 4.82802 0 0
8:16 pm 20:16 Cloudy with Light Rain 35 1.7 33 0.6 93 93 ENE 8 13 29.77 1008 2 3.21868 0.001 0.001
8:52 pm 20:52 Cloudy with Light Rain 35 1.7 33 0.6 93 93 NE 12 19 29.74 1007 2 3.21868 0.001 0.001
9:21 pm 21:21 Cloudy with Light Rain 35 1.7 32 0 89 89 ENE 13 20 29.76 1008 2 3.21868 0.12 3.048
9:47 pm 21:47 Cloudy with Mist and Fog 36 2 32 0 87 87 ENE 13 20 29.75 1007 2 3.21868 0.12 3.048
9:52 pm 21:52 Cloudy with Mist and Fog 35 1.7 32 0 89 89 ENE 15 24 29.72 1007 2 3.21868 0.12 3.048
11:52 pm 23:52 Cloudy with Mist and Fog 34 1.1 33 0.6 97 97 E 12 19 29.67 1005 1.5 2.41401 0.001 0.001

Powered by AerisWeather